QPF
0.02 0.02 0.01 0.01 0.01 0.01 0.01 0.01 0.00 0.00 0.00 0.01 0.01 0.00 0.00 0.00 0.00 0.00 0.00 0.00 0.00 0.00 0.00 0.00 0.01 0.01 0.00 0.00 0.00 0.00 0.00 0.00 0.00 0.00 0.00 0.00 0.00 0.00 0.00 0.00 0.00 0.00 0.00 0.00
0.02 0.02 0.00 0.00 0.01 0.01 0.01 0.01 0.01 0.00 0.01 0.01 0.01 0.00 0.00 0.00 0.00 0.00 0.00 0.00 0.00 0.00 0.00 0.00 0.00 0.00 0.00 0.00 0.00 0.00 0.00 0.01 0.00 0.00 0.00 0.00 0.00 0.00 0.00 0.00 0.00 0.00 0.00 0.00
0.01 0.01 0.01 0.01 0.01 0.01 0.01 0.01 0.01 0.01 0.01 0.01 0.01 0.00 0.00 0.00 0.00 0.00 0.00 0.00 0.00 0.00 0.00 0.00 0.00 0.00 0.00 0.00 0.00 0.00 0.00 0.00 0.00 0.00 0.01 0.00 0.00 0.00 0.00 0.00 0.00 0.00 0.00 0.00
0.01 0.01 0.01 0.01 0.01 0.01 0.01 0.00 0.01 0.01 0.02 0.02 0.01 0.01 0.00 0.00 0.00 0.00 0.00 0.00 0.00 0.00 0.00 0.00 0.00 0.00 0.00 0.00 0.00 0.00 0.00 0.00 0.00 0.01 0.01 0.01 0.00 0.00 0.01 0.01 0.00 0.00 0.00 0.00
0.02 0.01 0.01 0.01 0.01 0.02 0.01 0.00 0.01 0.02 0.03 0.04 0.02 0.01 0.00 0.00 0.00 0.00 0.00 0.00 0.00 0.00 0.00 0.00 0.00 0.00 0.00 0.00 0.00 0.00 0.00 0.00 0.01 0.01 0.01 0.01 0.01 0.01 0.01 0.01 0.01 0.01 0.00 0.00
0.01 0.01 0.01 0.01 0.01 0.01 0.02 0.02 0.02 0.02 0.05 0.06 0.02 0.02 0.01 0.00 0.00 0.00 0.00 0.00 0.00 0.00 0.00 0.00 0.00 0.00 0.00 0.00 0.00 0.00 0.00 0.00 0.00 0.01 0.02 0.01 0.01 0.02 0.02 0.01 0.01 0.01 0.01 0.01
0.03 0.01 0.01 0.01 0.02 0.02 0.03 0.04 0.06 0.06 0.07 0.04 0.01 0.01 0.01 0.00 0.00 0.00 0.00 0.00 0.00 0.00 0.00 0.00 0.00 0.00 0.00 0.00 0.00 0.00 0.00 0.01 0.01 0.01 0.01 0.01 0.02 0.02 0.02 0.02 0.02 0.01 0.01 0.01
0.04 0.03 0.01 0.01 0.01 0.02 0.03 0.04 0.05 0.03 0.02 0.01 0.00 0.01 0.01 0.00 0.00 0.00 0.00 0.00 0.00 0.00 0.00 0.00 0.00 0.00 0.00 0.00 0.00 0.00 0.00 0.01 0.01 0.01 0.01 0.01 0.02 0.02 0.02 0.02 0.02 0.02 0.01 0.01
0.05 0.04 0.01 0.01 0.01 0.01 0.03 0.04 0.04 0.05 0.03 0.01 0.01 0.01 0.01 0.00 0.00 0.01 0.01 0.00 0.01 0.00 0.00 0.00 0.00 0.00 0.00 0.00 0.00 0.00 0.00 0.00 0.01 0.01 0.01 0.01 0.01 0.02 0.02 0.03 0.03 0.03 0.03 0.02
0.06 0.06 0.02 0.01 0.01 0.02 0.03 0.03 0.05 0.09 0.06 0.03 0.02 0.01 0.01 0.01 0.01 0.01 0.01 0.01 0.01 0.01 0.01 0.01 0.01 0.01 0.00 0.00 0.00 0.00 0.00 0.01 0.01 0.01 0.01 0.01 0.01 0.02 0.02 0.03 0.04 0.05 0.04 0.04
0.05 0.05 0.04 0.03 0.02 0.02 0.03 0.04 0.05 0.06 0.06 0.04 0.04 0.02 0.02 0.02 0.02 0.02 0.02 0.01 0.01 0.01 0.01 0.01 0.01 0.01 0.01 0.01 0.01 0.01 0.01 0.01 0.01 0.01 0.01 0.01 0.02 0.02 0.02 0.02 0.02 0.03 0.03 0.04
0.03 0.06 0.05 0.03 0.02 0.01 0.02 0.03 0.04 0.05 0.05 0.03 0.03 0.03 0.02 0.02 0.02 0.02 0.02 0.02 0.01 0.01 0.01 0.01 0.01 0.01 0.01 0.02 0.01 0.01 0.01 0.01 0.01 0.01 0.01 0.01 0.01 0.01 0.01 0.01 0.01 0.02 0.02 0.02
0.04 0.06 0.06 0.05 0.04 0.03 0.03 0.02 0.03 0.04 0.05 0.04 0.02 0.02 0.02 0.01 0.01 0.01 0.01 0.01 0.01 0.01 0.01 0.01 0.01 0.01 0.01 0.01 0.01 0.01 0.01 0.01 0.01 0.01 0.01 0.01 0.01 0.01 0.01 0.01 0.01 0.01 0.01 0.02
0.07 0.06 0.04 0.05 0.03 0.02 0.03 0.02 0.02 0.04 0.05 0.03 0.01 0.01 0.02 0.01 0.01 0.01 0.01 0.01 0.01 0.01 0.01 0.00 0.00 0.00 0.01 0.01 0.01 0.01 0.00 0.00 0.00 0.00 0.00 0.00 0.01 0.01 0.01 0.02 0.02 0.02 0.02 0.02
0.05 0.05 0.02 0.02 0.02 0.01 0.02 0.02 0.01 0.01 0.02 0.02 0.01 0.01 0.01 0.01 0.01 0.01 0.01 0.00 0.00 0.00 0.00 0.00 0.00 0.00 0.00 0.00 0.00 0.00 0.00 0.00 0.00 0.00 0.00 0.00 0.01 0.01 0.01 0.01 0.01 0.02 0.02 0.02
0.05 0.06 0.03 0.02 0.01 0.01 0.01 0.01 0.01 0.01 0.01 0.01 0.01 0.01 0.00 0.00 0.00 0.00 0.00 0.00 0.00 0.00 0.00 0.00 0.00 0.00 0.00 0.00 0.00 0.00 0.00 0.00 0.00 0.00 0.00 0.01 0.01 0.01 0.01 0.01 0.01 0.01 0.01 0.02
0.05 0.06 0.05 0.03 0.02 0.02 0.02 0.01 0.01 0.02 0.02 0.01 0.02 0.01 0.01 0.01 0.01 0.00 0.00 0.01 0.01 0.00 0.00 0.00 0.01 0.00 0.00 0.00 0.00 0.00 0.00 0.00 0.01 0.01 0.01 0.01 0.01 0.01 0.01 0.01 0.01 0.01 0.01 0.02
0.04 0.05 0.06 0.04 0.03 0.04 0.02 0.00 0.01 0.01 0.01 0.02 0.02 0.02 0.02 0.02 0.01 0.01 0.01 0.01 0.01 0.01 0.01 0.01 0.01 0.01 0.01 0.01 0.01 0.01 0.01 0.01 0.01 0.01 0.01 0.01 0.01 0.01 0.01 0.01 0.02 0.02 0.02 0.01
0.01 0.03 0.04 0.04 0.03 0.02 0.01 0.00 0.01 0.01 0.01 0.02 0.01 0.01 0.01 0.01 0.01 0.00 0.00 0.01 0.01 0.02 0.02 0.02 0.02 0.02 0.02 0.02 0.02 0.02 0.02 0.01 0.01 0.01 0.01 0.01 0.01 0.01 0.01 0.01 0.02 0.02 0.02 0.02
0.01 0.02 0.04 0.03 0.03 0.01 0.00 0.00 0.01 0.01 0.01 0.01 0.01 0.01 0.01 0.00 0.00 0.00 0.00 0.00 0.01 0.02 0.02 0.02 0.02 0.02 0.03 0.03 0.03 0.03 0.03 0.03 0.02 0.02 0.02 0.01 0.01 0.01 0.01 0.01 0.02 0.02 0.02 0.02
0.02 0.03 0.04 0.02 0.02 0.01 0.00 0.00 0.01 0.02 0.02 0.01 0.01 0.01 0.01 0.00 0.01 0.00 0.00 0.00 0.00 0.01 0.02 0.01 0.01 0.02 0.02 0.03 0.03 0.03 0.03 0.02 0.02 0.02 0.02 0.02 0.02 0.01 0.02 0.02 0.02 0.02 0.03 0.03
0.01 0.02 0.02 0.02 0.02 0.01 0.00 0.01 0.01 0.02 0.01 0.01 0.01 0.01 0.01 0.00 0.00 0.00 0.00 0.00 0.00 0.01 0.01 0.01 0.01 0.01 0.01 0.02 0.02 0.02 0.02 0.02 0.03 0.03 0.03 0.02 0.02 0.02 0.02 0.02 0.03 0.03 0.03 0.03
0.00 0.01 0.01 0.01 0.01 0.01 0.01 0.01 0.01 0.01 0.01 0.02 0.02 0.01 0.01 0.01 0.01 0.01 0.00 0.00 0.00 0.01 0.01 0.01 0.00 0.00 0.00 0.01 0.01 0.01 0.01 0.01 0.02 0.02 0.03 0.03 0.03 0.03 0.03 0.03 0.03 0.03 0.03 0.03
0.00 0.00 0.01 0.01 0.00 0.01 0.01 0.01 0.01 0.01 0.02 0.02 0.02 0.02 0.02 0.02 0.01 0.01 0.01 0.01 0.01 0.01 0.01 0.00 0.00 0.00 0.01 0.00 0.01 0.01 0.01 0.01 0.02 0.02 0.02 0.02 0.02 0.03 0.03 0.03 0.03 0.03 0.03 0.03
0.00 0.00 0.01 0.01 0.00 0.00 0.00 0.01 0.01 0.01 0.01 0.01 0.02 0.02 0.02 0.02 0.01 0.01 0.01 0.01 0.01 0.01 0.01 0.00 0.00 0.00 0.01 0.01 0.01 0.01 0.01 0.01 0.01 0.02 0.02 0.02 0.02 0.02 0.02 0.03 0.03 0.03 0.03 0.03
0.00 0.00 0.00 0.00 0.00 0.00 0.00 0.01 0.01 0.01 0.01 0.01 0.01 0.01 0.01 0.02 0.01 0.01 0.01 0.01 0.01 0.01 0.01 0.00 0.00 0.01 0.01 0.01 0.01 0.01 0.01 0.01 0.01 0.01 0.01 0.02 0.02 0.02 0.02 0.02 0.03 0.03 0.03 0.04
MSLP
1015.34 1014.80 1014.32 1013.98 1013.85 1013.95 1014.30 1014.83 1015.46 1016.07 1016.56 1016.85 1016.87 1016.64 1016.19 1015.59 1014.96 1014.37 1013.88 1013.54 1013.34 1013.25 1013.25 1013.28 1013.32 1013.36 1013.39 1013.45 1013.56 1013.73 1013.98 1014.29 1014.64 1015.00 1015.33 1015.62 1015.85 1016.02 1016.16 1016.29 1016.43 1016.60 1016.81 1017.05
1015.10 1014.56 1014.07 1013.72 1013.59 1013.71 1014.08 1014.66 1015.35 1016.02 1016.57 1016.90 1016.95 1016.73 1016.27 1015.65 1014.97 1014.32 1013.78 1013.37 1013.11 1012.97 1012.91 1012.88 1012.86 1012.83 1012.80 1012.79 1012.82 1012.93 1013.12 1013.39 1013.72 1014.07 1014.42 1014.74 1015.01 1015.23 1015.40 1015.56 1015.72 1015.90 1016.11 1016.35
1014.88 1014.35 1013.87 1013.53 1013.40 1013.53 1013.92 1014.51 1015.21 1015.90 1016.46 1016.79 1016.84 1016.61 1016.14 1015.50 1014.81 1014.14 1013.58 1013.15 1012.87 1012.71 1012.62 1012.57 1012.50 1012.42 1012.33 1012.25 1012.21 1012.25 1012.37 1012.58 1012.87 1013.20 1013.54 1013.86 1014.15 1014.39 1014.59 1014.77 1014.94 1015.13 1015.35 1015.59
1014.70 1014.20 1013.74 1013.41 1013.29 1013.41 1013.78 1014.35 1015.02 1015.67 1016.20 1016.50 1016.53 1016.28 1015.80 1015.17 1014.48 1013.84 1013.30 1012.90 1012.64 1012.49 1012.42 1012.36 1012.29 1012.18 1012.05 1011.91 1011.81 1011.77 1011.82 1011.96 1012.18 1012.45 1012.75 1013.05 1013.32 1013.55 1013.75 1013.94 1014.12 1014.31 1014.53 1014.77
1014.61 1014.14 1013.69 1013.37 1013.23 1013.33 1013.66 1014.17 1014.77 1015.36 1015.82 1016.06 1016.06 1015.79 1015.32 1014.71 1014.07 1013.47 1012.99 1012.65 1012.45 1012.36 1012.32 1012.29 1012.23 1012.12 1011.96 1011.79 1011.63 1011.52 1011.49 1011.55 1011.69 1011.89 1012.11 1012.35 1012.57 1012.77 1012.95 1013.12 1013.30 1013.49 1013.70 1013.95
1014.67 1014.20 1013.75 1013.41 1013.24 1013.29 1013.55 1013.97 1014.49 1014.98 1015.36 1015.54 1015.49 1015.22 1014.77 1014.21 1013.64 1013.13 1012.74 1012.49 1012.37 1012.35 1012.37 1012.38 1012.34 1012.23 1012.07 1011.87 1011.66 1011.50 1011.39 1011.36 1011.41 1011.51 1011.65 1011.81 1011.96 1012.10 1012.24 1012.38 1012.53 1012.72 1012.93 1013.17
1014.91 1014.41 1013.93 1013.55 1013.33 1013.31 1013.48 1013.80 1014.21 1014.60 1014.89 1015.01 1014.94 1014.67 1014.27 1013.78 1013.30 1012.90 1012.61 1012.46 1012.42 1012.47 1012.54 1012.59 1012.57 1012.47 1012.30 1012.08 1011.85 1011.63 1011.46 1011.36 1011.31 1011.32 1011.37 1011.43 1011.50 1011.58 1011.66 1011.77 1011.90 1012.06 1012.27 1012.50
1015.32 1014.78 1014.26 1013.82 1013.53 1013.42 1013.50 1013.72 1014.01 1014.30 1014.51 1014.58 1014.49 1014.24 1013.90 1013.50 1013.12 1012.83 1012.65 1012.59 1012.63 1012.72 1012.83 1012.89 1012.88 1012.78 1012.60 1012.36 1012.10 1011.84 1011.62 1011.45 1011.34 1011.27 1011.23 1011.21 1011.21 1011.22 1011.26 1011.32 1011.43 1011.58 1011.76 1011.98
1015.90 1015.30 1014.73 1014.23 1013.87 1013.69 1013.66 1013.78 1013.96 1014.15 1014.28 1014.31 1014.21 1014.00 1013.72 1013.41 1013.15 1012.95 1012.87 1012.87 1012.96 1013.08 1013.19 1013.24 1013.20 1013.08 1012.87 1012.61 1012.32 1012.04 1011.79 1011.58 1011.42 1011.29 1011.20 1011.13 1011.07 1011.04 1011.03 1011.07 1011.15 1011.27 1011.44 1011.64
1016.58 1015.95 1015.33 1014.80 1014.39 1014.14 1014.03 1014.04 1014.12 1014.22 1014.27 1014.25 1014.15 1013.97 1013.75 1013.53 1013.35 1013.25 1013.23 1013.28 1013.38 1013.49 1013.56 1013.57 1013.49 1013.31 1013.07 1012.77 1012.46 1012.16 1011.90 1011.68 1011.49 1011.35 1011.23 1011.13 1011.05 1011.00 1010.97 1010.98 1011.05 1011.15 1011.30 1011.47
1017.33 1016.70 1016.08 1015.54 1015.11 1014.80 1014.62 1014.54 1014.53 1014.52 1014.50 1014.43 1014.30 1014.14 1013.96 1013.81 1013.70 1013.66 1013.68 1013.75 1013.84 1013.90 1013.91 1013.84 1013.69 1013.45 1013.15 1012.82 1012.49 1012.19 1011.93 1011.71 1011.54 1011.40 1011.29 1011.20 1011.12 1011.06 1011.03 1011.04 1011.09 1011.18 1011.30 1011.43
1018.13 1017.53 1016.96 1016.45 1016.02 1015.69 1015.45 1015.29 1015.16 1015.05 1014.93 1014.78 1014.62 1014.45 1014.29 1014.17 1014.11 1014.11 1014.15 1014.21 1014.26 1014.27 1014.20 1014.05 1013.81 1013.50 1013.15 1012.78 1012.44 1012.14 1011.89 1011.70 1011.56 1011.45 1011.37 1011.30 1011.24 1011.19 1011.17 1011.18 1011.22 1011.29 1011.39 1011.49
1018.96 1018.46 1017.97 1017.52 1017.12 1016.78 1016.49 1016.23 1015.99 1015.76 1015.52 1015.27 1015.04 1014.82 1014.66 1014.55 1014.51 1014.53 1014.57 1014.62 1014.63 1014.58 1014.44 1014.20 1013.89 1013.51 1013.11 1012.72 1012.36 1012.07 1011.85 1011.69 1011.59 1011.52 1011.47 1011.42 1011.39 1011.36 1011.34 1011.35 1011.38 1011.44 1011.51 1011.59
1019.85 1019.48 1019.10 1018.73 1018.37 1018.02 1017.67 1017.31 1016.94 1016.56 1016.18 1015.82 1015.48 1015.21 1015.01 1014.90 1014.86 1014.88 1014.93 1014.96 1014.94 1014.84 1014.64 1014.34 1013.96 1013.54 1013.11 1012.70 1012.34 1012.06 1011.87 1011.74 1011.67 1011.62 1011.60 1011.58 1011.55 1011.53 1011.51 1011.52 1011.54 1011.58 1011.63 1011.68
1020.83 1020.59 1020.33 1020.03 1019.70 1019.32 1018.89 1018.42 1017.91 1017.38 1016.85 1016.35 1015.91 1015.57 1015.33 1015.20 1015.16 1015.18 1015.22 1015.24 1015.21 1015.08 1014.84 1014.51 1014.10 1013.65 1013.20 1012.79 1012.44 1012.17 1011.99 1011.89 1011.83 1011.80 1011.78 1011.76 1011.73 1011.70 1011.67 1011.65 1011.65 1011.67 1011.70 1011.73
1021.91 1021.77 1021.59 1021.34 1021.00 1020.57 1020.05 1019.45 1018.79 1018.11 1017.44 1016.82 1016.28 1015.87 1015.59 1015.45 1015.41 1015.44 1015.49 1015.51 1015.47 1015.33 1015.09 1014.74 1014.32 1013.87 1013.42 1013.01 1012.68 1012.42 1012.26 1012.15 1012.09 1012.06 1012.02 1011.98 1011.92 1011.85 1011.79 1011.74 1011.71 1011.70 1011.71 1011.72
1023.03 1022.96 1022.80 1022.54 1022.15 1021.64 1021.02 1020.29 1019.50 1018.68 1017.89 1017.18 1016.58 1016.12 1015.83 1015.68 1015.65 1015.70 1015.76 1015.80 1015.76 1015.63 1015.38 1015.04 1014.63 1014.19 1013.75 1013.36 1013.04 1012.80 1012.63 1012.52 1012.44 1012.38 1012.30 1012.21 1012.10 1011.98 1011.87 1011.78 1011.71 1011.67 1011.66 1011.66
1024.10 1024.01 1023.82 1023.49 1023.02 1022.40 1021.66 1020.82 1019.93 1019.02 1018.17 1017.41 1016.79 1016.34 1016.05 1015.93 1015.92 1015.99 1016.07 1016.12 1016.09 1015.96 1015.72 1015.39 1014.99 1014.57 1014.15 1013.78 1013.48 1013.24 1013.07 1012.94 1012.83 1012.72 1012.59 1012.44 1012.27 1012.09 1011.91 1011.76 1011.65 1011.58 1011.54 1011.52
1024.97 1024.80 1024.50 1024.06 1023.47 1022.74 1021.90 1020.99 1020.04 1019.10 1018.25 1017.51 1016.93 1016.52 1016.28 1016.20 1016.23 1016.32 1016.41 1016.46 1016.43 1016.29 1016.05 1015.73 1015.34 1014.93 1014.54 1014.19 1013.90 1013.67 1013.49 1013.34 1013.19 1013.04 1012.85 1012.64 1012.40 1012.15 1011.91 1011.70 1011.54 1011.43 1011.36 1011.32
1025.48 1025.17 1024.73 1024.15 1023.44 1022.62 1021.72 1020.77 1019.83 1018.94 1018.15 1017.50 1017.00 1016.68 1016.53 1016.50 1016.57 1016.67 1016.76 1016.80 1016.75 1016.59 1016.34 1016.00 1015.62 1015.22 1014.85 1014.52 1014.24 1014.01 1013.83 1013.66 1013.49 1013.29 1013.05 1012.78 1012.48 1012.16 1011.86 1011.60 1011.38 1011.22 1011.11 1011.05
1025.52 1025.04 1024.44 1023.73 1022.92 1022.04 1021.13 1020.22 1019.36 1018.58 1017.91 1017.40 1017.04 1016.84 1016.77 1016.81 1016.91 1017.02 1017.09 1017.09 1017.00 1016.81 1016.53 1016.17 1015.79 1015.40 1015.04 1014.72 1014.46 1014.25 1014.06 1013.89 1013.69 1013.46 1013.18 1012.85 1012.50 1012.13 1011.77 1011.44 1011.17 1010.96 1010.80 1010.69
1025.03 1024.40 1023.66 1022.86 1022.00 1021.13 1020.27 1019.46 1018.73 1018.11 1017.62 1017.27 1017.07 1016.99 1017.02 1017.11 1017.23 1017.33 1017.37 1017.32 1017.18 1016.94 1016.62 1016.24 1015.85 1015.47 1015.12 1014.82 1014.58 1014.38 1014.20 1014.02 1013.80 1013.55 1013.23 1012.87 1012.46 1012.04 1011.63 1011.24 1010.91 1010.63 1010.42 1010.25
1024.08 1023.33 1022.52 1021.67 1020.84 1020.03 1019.28 1018.62 1018.07 1017.65 1017.35 1017.18 1017.13 1017.17 1017.27 1017.40 1017.52 1017.59 1017.58 1017.48 1017.28 1016.99 1016.63 1016.24 1015.84 1015.47 1015.14 1014.86 1014.63 1014.44 1014.27 1014.08 1013.86 1013.58 1013.24 1012.84 1012.39 1011.92 1011.45 1011.00 1010.60 1010.25 1009.96 1009.72
1022.81 1022.01 1021.19 1020.39 1019.64 1018.96 1018.37 1017.90 1017.55 1017.32 1017.21 1017.20 1017.27 1017.40 1017.55 1017.69 1017.79 1017.82 1017.75 1017.59 1017.34 1017.02 1016.64 1016.23 1015.84 1015.48 1015.16 1014.90 1014.69 1014.51 1014.33 1014.14 1013.90 1013.60 1013.22 1012.79 1012.30 1011.77 1011.24 1010.72 1010.24 1009.81 1009.43 1009.10
1021.45 1020.67 1019.92 1019.23 1018.62 1018.11 1017.72 1017.44 1017.28 1017.23 1017.27 1017.38 1017.54 1017.71 1017.88 1018.00 1018.06 1018.04 1017.92 1017.72 1017.43 1017.08 1016.69 1016.29 1015.90 1015.56 1015.26 1015.01 1014.80 1014.62 1014.43 1014.21 1013.94 1013.61 1013.20 1012.71 1012.17 1011.59 1010.99 1010.40 1009.83 1009.31 1008.83 1008.40
1020.25 1019.56 1018.94 1018.40 1017.97 1017.65 1017.45 1017.36 1017.36 1017.44 1017.58 1017.76 1017.95 1018.13 1018.27 1018.35 1018.36 1018.28 1018.12 1017.88 1017.57 1017.22 1016.83 1016.45 1016.08 1015.75 1015.46 1015.21 1014.99 1014.78 1014.55 1014.30 1013.98 1013.60 1013.14 1012.61 1012.01 1011.36 1010.69 1010.02 1009.36 1008.74 1008.15 1007.62
Thickness
5514 5522 5532 5544 5550 5558 5564 5570 5576 5583 5586 5590 5603 5614 5625 5631 5634 5643 5651 5657 5662 5667 5672 5674 5675 5676 5676 5677 5678 5679 5679 5679 5676 5674 5672 5671 5670 5670 5668 5667 5666 5664 5663 5660
5500 5509 5521 5526 5532 5537 5543 5550 5560 5565 5569 5575 5588 5601 5614 5621 5627 5635 5642 5648 5654 5659 5662 5664 5666 5668 5670 5672 5673 5674 5675 5675 5674 5673 5671 5670 5668 5667 5666 5664 5662 5661 5660 5657
5491 5499 5504 5509 5515 5520 5529 5538 5545 5548 5552 5559 5570 5592 5605 5614 5618 5624 5630 5637 5643 5647 5651 5655 5656 5659 5661 5663 5666 5667 5669 5670 5669 5668 5665 5663 5662 5661 5661 5660 5659 5658 5656 5654
5476 5483 5487 5495 5503 5509 5518 5526 5529 5531 5537 5549 5555 5575 5601 5604 5608 5614 5620 5625 5631 5636 5640 5644 5646 5648 5651 5654 5657 5659 5661 5663 5663 5662 5661 5660 5659 5659 5660 5658 5655 5653 5651 5649
5468 5472 5477 5485 5494 5499 5506 5511 5514 5517 5522 5529 5543 5548 5587 5590 5596 5606 5611 5615 5620 5624 5627 5631 5634 5637 5640 5642 5645 5648 5650 5653 5655 5655 5655 5654 5654 5655 5654 5651 5649 5647 5646 5644
5460 5463 5468 5477 5483 5488 5491 5495 5498 5502 5506 5512 5538 5540 5570 5580 5588 5594 5598 5601 5605 5609 5613 5617 5620 5623 5626 5628 5631 5635 5638 5642 5644 5645 5646 5646 5647 5647 5645 5644 5642 5640 5638 5636
5451 5458 5462 5467 5471 5475 5481 5483 5484 5486 5492 5513 5528 5531 5556 5566 5571 5576 5580 5586 5590 5594 5598 5601 5603 5606 5609 5612 5616 5621 5625 5628 5632 5634 5635 5636 5637 5637 5637 5636 5634 5632 5631 5629
5443 5452 5457 5461 5466 5470 5475 5480 5484 5489 5498 5513 5511 5525 5547 5548 5552 5557 5562 5568 5573 5577 5580 5583 5586 5589 5592 5596 5600 5605 5609 5613 5616 5619 5621 5623 5624 5624 5625 5625 5624 5623 5622 5620
5437 5445 5450 5453 5459 5465 5466 5471 5480 5479 5480 5490 5509 5521 5530 5532 5536 5540 5545 5550 5555 5559 5561 5565 5568 5572 5575 5579 5583 5587 5591 5596 5599 5603 5606 5607 5609 5610 5611 5611 5611 5611 5610 5608
5426 5431 5440 5444 5450 5455 5462 5466 5463 5464 5472 5485 5502 5511 5522 5519 5523 5527 5530 5533 5537 5540 5543 5547 5550 5554 5557 5561 5565 5570 5574 5578 5581 5585 5588 5590 5592 5594 5595 5597 5597 5597 5596 5595
5418 5422 5432 5437 5442 5450 5450 5452 5456 5461 5466 5478 5489 5506 5508 5509 5511 5512 5515 5517 5520 5522 5525 5529 5533 5536 5540 5543 5547 5552 5555 5559 5563 5566 5569 5572 5575 5577 5579 5580 5581 5581 5581 5580
5413 5418 5423 5430 5433 5437 5444 5449 5451 5451 5450 5461 5474 5491 5493 5494 5496 5497 5499 5501 5504 5506 5509 5512 5516 5520 5524 5527 5530 5533 5537 5540 5543 5546 5550 5553 5556 5559 5561 5563 5565 5565 5565 5564
5406 5406 5413 5421 5423 5424 5429 5436 5441 5442 5442 5449 5459 5479 5482 5482 5483 5484 5485 5487 5489 5491 5494 5498 5501 5504 5507 5510 5513 5516 5519 5522 5524 5528 5531 5535 5538 5541 5543 5545 5547 5548 5548 5548
5402 5397 5405 5415 5422 5421 5421 5426 5431 5432 5434 5442 5455 5469 5472 5471 5472 5473 5474 5475 5477 5478 5480 5484 5486 5489 5491 5493 5496 5499 5502 5504 5507 5510 5514 5517 5519 5522 5524 5526 5528 5529 5530 5531
5392 5391 5390 5397 5405 5407 5411 5418 5422 5423 5431 5435 5449 5455 5463 5461 5461 5462 5463 5464 5465 5467 5468 5469 5472 5474 5476 5477 5479 5482 5485 5487 5490 5493 5496 5499 5501 5503 5505 5507 5509 5511 5512 5512
5379 5380 5382 5384 5394 5398 5400 5409 5413 5418 5423 5427 5434 5442 5451 5450 5450 5451 5453 5453 5454 5456 5456 5457 5459 5460 5461 5462 5464 5466 5468 5470 5472 5476 5478 5481 5483 5485 5487 5489 5491 5492 5493 5493
5370 5369 5374 5383 5379 5386 5394 5405 5409 5414 5419 5422 5427 5436 5436 5435 5436 5439 5442 5443 5444 5445 5445 5446 5447 5447 5447 5448 5448 5450 5452 5453 5455 5458 5460 5462 5465 5467 5469 5471 5471 5472 5473 5474
5362 5361 5361 5369 5369 5380 5405 5404 5404 5408 5412 5415 5416 5419 5421 5422 5424 5427 5430 5432 5433 5433 5432 5433 5433 5434 5433 5433 5433 5434 5435 5437 5439 5442 5443 5445 5447 5449 5450 5452 5452 5453 5454 5455
5362 5360 5358 5359 5366 5377 5392 5397 5395 5398 5406 5406 5406 5408 5410 5410 5412 5421 5420 5418 5418 5419 5418 5419 5418 5418 5418 5418 5418 5419 5420 5422 5424 5425 5426 5428 5429 5431 5432 5433 5434 5434 5435 5436
5356 5355 5353 5350 5361 5368 5393 5391 5388 5390 5396 5399 5396 5397 5397 5396 5402 5413 5408 5403 5403 5403 5403 5403 5403 5402 5403 5403 5402 5403 5405 5407 5409 5410 5410 5410 5411 5413 5415 5416 5416 5416 5417 5418
5345 5346 5346 5347 5353 5367 5382 5379 5380 5380 5389 5386 5385 5384 5384 5384 5388 5391 5389 5388 5389 5389 5389 5388 5389 5389 5389 5388 5387 5388 5390 5392 5393 5393 5393 5394 5395 5396 5397 5398 5399 5399 5399 5400
5348 5347 5343 5343 5346 5362 5374 5368 5373 5377 5376 5373 5372 5372 5372 5373 5372 5373 5374 5374 5376 5377 5376 5376 5376 5376 5375 5373 5372 5374 5375 5376 5375 5376 5377 5378 5379 5379 5380 5381 5382 5382 5382 5383
5346 5353 5353 5353 5363 5369 5364 5365 5363 5361 5361 5362 5360 5359 5359 5361 5363 5363 5363 5364 5365 5364 5363 5362 5361 5361 5360 5358 5358 5359 5360 5358 5359 5359 5361 5362 5362 5363 5364 5365 5365 5365 5365 5366
5343 5341 5343 5344 5357 5359 5356 5354 5351 5349 5349 5349 5347 5347 5348 5350 5352 5352 5353 5354 5353 5351 5348 5346 5345 5345 5346 5344 5344 5344 5343 5343 5344 5345 5346 5347 5347 5348 5348 5348 5350 5350 5350 5350
5344 5336 5336 5340 5350 5348 5350 5347 5344 5341 5339 5338 5338 5338 5338 5339 5341 5342 5342 5341 5339 5337 5334 5331 5330 5331 5331 5331 5330 5329 5328 5328 5329 5330 5331 5332 5333 5333 5333 5333 5334 5334 5335 5335
5339 5337 5339 5348 5348 5343 5347 5342 5334 5331 5331 5330 5329 5329 5328 5326 5328 5328 5327 5326 5323 5321 5318 5316 5316 5315 5315 5315 5315 5315 5314 5313 5314 5315 5316 5317 5317 5317 5318 5318 5318 5317 5317 5318